Wetbulb
69.32 69.58 68.93 65.66 61.00 61.24 56.26 59.14 61.73 60.98 61.98 64.86 63.08 63.76 63.67 66.61 64.65 61.70 69.49 70.80 74.52 74.60 75.98 75.03 74.40 74.12 74.29 74.36 74.50 74.36 74.34 73.98 73.77 73.59 73.41 73.74 73.98 73.70 73.39 73.57 74.16 74.33 74.17 74.14 74.16 74.02 73.67 73.31 73.18
65.05 65.03 65.83 63.43 59.61 51.71 54.18 61.15 61.17 63.63 64.58 64.64 63.53 64.30 64.69 65.30 70.03 69.16 68.40 71.61 74.99 75.41 75.89 74.62 74.69 74.70 74.17 74.59 74.74 74.32 74.01 73.61 73.60 73.57 73.71 73.62 73.56 73.51 73.37 73.52 73.81 73.97 74.03 73.98 73.70 73.39 72.88 72.48 71.86
66.35 65.78 60.92 60.28 57.45 55.73 54.82 60.76 62.77 65.64 66.17 63.93 64.43 65.49 65.83 66.61 69.38 68.80 70.55 72.47 75.17 74.96 75.86 75.57 74.92 74.64 74.19 74.30 74.04 73.97 73.77 73.46 73.73 73.90 73.80 73.74 73.62 73.34 73.63 74.04 73.95 73.82 73.67 73.28 72.76 72.11 71.52 71.19 70.81
63.36 63.05 61.70 57.62 55.30 59.44 60.31 58.48 64.57 64.90 66.46 66.36 65.54 65.34 68.92 70.75 69.48 70.68 70.92 73.54 73.97 74.57 75.96 75.20 75.18 74.29 73.80 74.03 73.77 73.74 73.61 73.76 73.78 73.90 73.82 73.77 73.72 73.70 73.80 73.75 73.52 73.29 72.60 72.25 71.87 71.48 71.43 71.45 71.46
62.57 60.94 55.74 55.72 56.40 57.96 59.65 64.02 65.49 63.19 63.23 64.50 64.20 64.12 67.04 70.28 71.96 70.74 71.61 73.39 72.84 74.55 75.36 75.07 74.93 74.14 73.68 73.95 73.86 73.59 73.94 73.89 73.86 73.93 73.82 73.95 74.01 73.89 73.93 73.78 73.34 72.44 72.01 71.55 71.19 70.84 70.65 71.03 71.43
58.62 60.27 54.15 53.21 55.79 57.93 59.41 63.16 64.46 63.66 63.54 64.60 63.77 63.93 67.67 71.07 69.45 70.38 72.16 72.67 73.24 74.78 74.50 74.69 74.86 74.60 74.45 73.96 73.72 73.97 74.48 74.32 73.94 74.01 73.88 73.94 73.84 73.84 73.68 73.30 72.95 72.24 71.70 71.32 70.95 70.97 71.47 71.86 72.16
57.74 57.46 54.07 54.90 55.83 56.79 58.98 63.68 63.80 63.14 62.81 63.88 65.23 62.93 68.31 69.23 70.26 70.81 71.76 72.70 73.26 75.02 74.52 74.13 74.06 74.55 74.15 74.32 74.15 74.10 74.08 74.15 73.94 73.91 73.89 73.80 73.64 73.66 73.55 73.04 72.73 72.22 71.83 71.58 71.68 72.00 72.48 72.82 73.35
59.60 58.00 55.14 55.31 55.26 55.21 61.76 62.15 65.25 64.53 63.61 66.24 65.91 62.16 66.12 70.17 71.40 70.92 70.83 71.70 72.39 74.02 74.70 73.87 73.69 73.42 73.31 74.00 73.95 74.03 74.05 74.20 73.85 73.82 73.87 73.80 73.54 73.59 73.33 73.19 72.90 72.77 72.61 72.66 72.70 72.92 73.42 73.74 74.33
61.42 55.31 53.87 54.82 55.17 56.48 60.21 61.24 65.72 66.64 64.52 65.13 66.39 65.82 69.98 72.44 71.49 69.56 68.92 70.03 70.92 71.85 73.72 73.68 72.94 72.96 72.64 72.42 74.10 74.11 74.07 74.05 74.00 73.87 73.88 73.64 73.12 73.25 74.10 73.75 73.38 72.58 72.57 73.03 73.47 73.96 74.32 75.15 75.15
57.97 54.93 55.11 58.55 58.34 57.67 57.73 59.84 64.85 64.48 62.92 63.14 65.46 68.42 72.48 72.26 70.22 67.70 67.21 68.35 69.38 70.26 72.11 73.03 72.87 72.73 72.74 72.77 73.84 73.29 73.16 73.49 73.54 73.31 74.00 73.48 73.50 73.70 73.17 74.22 73.28 72.88 73.06 73.94 74.40 74.95 75.15 75.10 75.08
58.12 54.73 58.05 59.36 58.51 59.06 58.34 60.87 65.50 63.03 61.22 63.64 62.71 68.06 70.96 70.98 69.69 68.06 67.09 67.84 68.89 70.21 71.52 72.64 73.41 73.88 72.62 72.59 73.59 72.85 72.93 72.92 73.37 74.12 74.95 73.72 73.24 73.07 71.77 71.27 72.84 72.55 72.23 73.90 73.91 75.25 75.30 75.66 74.52
55.50 57.67 58.56 59.72 59.40 58.22 58.16 59.40 62.52 63.69 62.73 65.52 65.28 69.81 70.96 69.92 68.61 67.54 66.94 67.09 68.22 69.59 70.92 72.36 73.65 74.60 73.85 72.62 73.27 73.13 72.92 73.28 73.32 73.99 74.96 74.35 73.52 73.05 72.54 71.72 71.84 73.37 73.94 74.31 74.76 73.59 74.16 74.36 74.51
55.37 56.65 58.41 59.64 59.65 59.08 59.48 58.24 59.42 61.08 64.27 65.82 65.70 69.43 69.88 68.84 68.35 67.69 67.99 68.30 69.26 69.13 70.62 71.68 73.94 75.11 74.85 74.14 73.08 73.23 72.94 73.00 73.41 74.09 74.75 73.70 73.01 72.86 72.71 72.25 71.87 72.02 73.09 73.88 73.60 73.79 74.03 74.09 74.03
56.90 56.11 56.59 59.27 58.92 59.51 58.06 58.77 57.80 58.86 60.96 62.24 64.44 66.46 69.09 67.53 67.79 67.86 68.21 68.48 69.40 70.26 71.16 71.80 73.32 75.76 75.15 75.27 74.97 73.39 73.56 73.56 73.28 73.48 73.58 74.12 73.78 73.79 72.42 73.16 73.34 72.58 73.23 74.05 74.19 74.69 74.78 74.34 74.34
54.47 53.09 54.96 56.88 57.79 57.92 59.31 56.55 56.79 59.80 60.64 61.51 63.93 65.23 66.94 67.52 67.28 67.54 68.56 70.09 71.05 71.69 72.54 72.53 73.46 75.39 75.76 75.23 75.05 74.32 73.37 72.75 73.24 73.78 74.75 74.45 74.88 74.84 74.91 74.12 74.16 74.94 75.67 75.47 75.31 74.88 75.24 74.19 74.03
51.31 52.02 49.27 54.09 55.91 57.53 57.94 53.02 58.17 60.08 59.61 60.02 61.86 63.45 64.43 66.46 66.36 68.26 69.49 70.75 72.13 72.93 73.97 74.17 73.36 74.28 75.28 75.21 74.69 73.52 73.10 72.87 73.90 74.70 74.56 75.15 75.18 75.89 76.01 74.80 74.81 75.87 75.91 75.65 75.05 75.39 73.74 73.74 73.52
50.96 46.91 48.63 50.29 55.61 56.02 56.25 53.26 57.65 60.55 59.42 58.90 60.16 61.83 63.47 65.10 67.70 68.43 70.24 71.30 72.20 73.74 74.21 75.19 75.64 73.79 74.90 76.25 74.61 74.82 76.43 73.60 74.25 75.13 74.87 75.88 75.27 75.33 75.28 75.14 75.57 77.38 75.71 75.37 74.88 74.24 75.84 73.31 73.12
47.92 48.42 49.10 49.10 52.85 53.92 53.09 53.52 56.79 59.23 59.60 58.77 59.03 59.71 60.94 63.71 65.62 68.89 69.90 71.54 73.21 73.88 76.04 76.57 76.13 77.94 77.57 75.57 75.18 73.64 72.77 73.33 73.98 74.71 75.09 76.34 76.10 75.94 76.02 76.09 77.67 76.57 75.07 74.60 74.21 74.32 74.33 72.84 72.34
50.42 49.47 48.98 51.10 52.69 51.27 51.89 52.86 54.87 57.80 58.65 58.09 58.46 59.65 60.26 60.85 64.72 67.37 70.51 72.41 74.12 75.89 76.31 76.46 76.47 77.75 76.43 74.37 72.82 72.34 71.50 72.85 72.49 74.11 76.42 77.16 77.29 77.60 77.48 76.48 76.02 75.45 75.82 74.61 74.68 73.30 73.30 71.29 73.20
49.43 48.17 48.29 50.70 52.21 51.50 51.34 51.08 53.72 55.42 56.94 58.27 58.28 58.92 59.87 60.94 61.81 63.94 69.08 73.07 75.03 76.35 77.18 77.60 77.29 78.52 77.67 75.64 75.84 74.44 73.76 73.37 74.37 75.98 76.96 77.29 77.48 77.44 76.42 76.17 75.41 75.04 73.25 73.77 72.02 72.00 70.18 70.08 69.53
49.52 48.61 48.83 48.72 51.08 52.36 50.99 49.68 51.74 54.00 55.66 56.75 58.21 59.60 60.08 60.46 60.94 62.36 64.60 71.75 74.41 75.75 77.06 76.70 78.28 78.27 77.63 77.42 76.84 76.51 75.26 75.20 73.96 75.32 75.51 76.24 75.94 75.71 75.82 75.27 74.46 74.35 73.50 71.57 70.95 69.48 67.73 64.74 65.93
48.40 52.19 51.15 50.12 48.99 45.19 52.00 45.33 51.44 53.52 53.88 55.05 56.09 57.20 58.40 59.98 61.03 61.81 62.94 66.94 73.22 74.57 75.59 77.21 78.15 78.94 78.29 78.83 76.02 75.89 72.37 71.90 73.87 74.98 75.10 74.08 74.60 74.46 74.38 74.35 73.41 72.38 70.72 69.40 67.16 66.42 66.12 65.08 62.57
50.66 52.94 51.77 51.60 50.18 49.79 49.54 47.36 50.16 53.52 52.53 54.25 56.11 57.36 58.58 59.41 60.74 61.32 62.00 62.97 68.52 73.65 74.49 76.43 78.50 78.81 78.81 78.38 77.42 75.42 74.37 73.85 73.85 74.31 74.52 74.73 73.41 72.97 71.63 71.80 70.89 69.40 67.79 67.75 66.64 65.62 65.02 64.28 62.26
53.90 51.81 51.84 52.06 50.29 45.18 49.14 48.24 48.12 50.76 53.05 54.34 56.44 59.70 61.83 63.57 64.30 62.77 64.42 65.89 65.65 70.83 74.57 75.63 77.35 78.31 78.53 78.49 77.46 77.35 75.59 75.56 73.74 74.35 71.60 71.36 70.95 70.02 69.62 68.94 68.19 67.30 66.60 64.90 64.21 64.72 64.61 64.21 63.37
53.74 51.80 46.03 44.96 44.66 43.96 50.66 48.55 50.43 53.68 55.06 58.62 59.26 60.08 61.22 62.85 64.81 67.13 67.44 66.78 67.58 69.56 74.02 74.80 76.08 76.47 77.66 77.30 76.40 77.64 77.27 77.01 77.16 74.12 71.66 71.34 68.86 66.81 67.23 67.37 66.42 64.60 65.46 64.32 64.19 64.03 63.48 63.03 62.64
51.14 50.74 45.98 40.37 42.51 45.46 51.10 46.92 50.53 55.28 59.37 59.64 59.13 58.32 58.51 59.47 61.33 63.14 67.75 67.60 67.55 70.50 73.13 73.97 74.81 75.23 75.83 75.94 75.38 76.87 76.62 75.04 74.34 73.73 71.77 71.20 68.24 66.39 66.26 66.50 65.33 64.30 63.28 62.75 63.24 62.23 62.11 62.53 61.31
48.62 48.21 50.32 46.86 48.59 45.21 47.40 50.67 53.74 56.92 56.27 54.87 53.71 53.97 54.26 55.48 59.39 61.02 65.35 69.57 71.25 72.72 73.29 73.96 74.57 74.94 75.58 75.52 75.35 74.99 75.58 76.02 74.03 73.68 72.12 68.10 69.11 65.24 65.11 64.77 63.83 62.46 61.88 61.83 62.85 60.98 61.07 61.18 60.53
47.13 48.94 44.12 46.39 40.01 39.44 45.12 46.99 47.26 50.77 50.09 50.76 50.56 51.49 54.36 56.30 58.31 60.16 61.71 65.56 68.04 70.02 71.65 73.97 73.16 73.08 72.85 74.87 74.28 74.14 72.81 74.15 72.99 70.53 68.94 68.51 68.06 65.90 64.68 63.12 62.50 61.60 60.98 61.18 62.77 61.36 60.85 60.17 59.50
45.03 45.26 45.27 45.29 44.60 39.92 38.94 43.11 54.24 51.05 49.81 49.04 49.49 50.67 53.20 54.85 56.73 58.26 59.80 63.39 65.49 66.55 67.06 69.62 71.61 70.78 71.12 72.46 72.19 71.12 71.87 72.10 70.74 69.90 68.37 67.35 65.82 64.51 62.42 61.57 60.71 60.32 60.64 60.74 61.26 60.57 59.37 58.53 58.59
45.77 42.82 43.00 38.42 38.51 41.11 39.81 41.89 53.55 53.72 52.38 49.91 49.21 50.35 52.09 53.46 54.41 55.38 56.27 57.74 59.35 61.80 64.82 65.87 69.81 69.50 69.99 71.02 71.56 72.19 70.87 70.07 67.91 67.65 66.22 65.25 63.56 63.09 61.53 60.95 60.20 59.60 60.21 60.83 59.91 59.06 58.36 57.00 57.16
MSLP
1008.09 1007.33 1005.96 1004.76 1003.42 1001.21 999.62 999.13 999.63 1000.15 999.57 1000.55 1000.99 1001.36 1002.11 1003.04 1003.49 1004.84 1006.31 1006.72 1007.61 1009.61 1011.26 1012.25 1013.05 1013.34 1013.57 1013.81 1014.14 1014.39 1014.63 1014.84 1015.05 1015.23 1015.39 1015.51 1015.68 1015.81 1015.90 1015.93 1015.97 1016.03 1016.05 1016.10 1016.16 1016.18 1016.19 1016.27 1016.35
1006.80 1005.41 1004.70 1002.97 1001.36 1002.54 1000.54 998.71 999.03 999.82 1000.91 1001.15 1001.65 1001.95 1002.30 1003.73 1004.85 1005.95 1006.91 1007.07 1008.16 1009.91 1011.07 1012.10 1013.21 1013.54 1013.77 1014.02 1014.25 1014.61 1014.85 1015.13 1015.38 1015.54 1015.71 1015.78 1015.90 1016.06 1016.19 1016.23 1016.26 1016.35 1016.38 1016.37 1016.40 1016.42 1016.44 1016.46 1016.50
1006.92 1005.14 1003.54 1000.70 1000.17 1000.55 1000.92 999.55 998.83 1000.15 1000.92 1001.37 1001.95 1002.77 1003.33 1004.82 1005.82 1006.14 1006.99 1007.54 1008.70 1009.95 1010.77 1012.48 1013.34 1013.71 1014.03 1014.32 1014.61 1014.88 1015.15 1015.42 1015.66 1015.79 1015.93 1016.02 1016.20 1016.31 1016.36 1016.45 1016.49 1016.53 1016.60 1016.65 1016.69 1016.74 1016.71 1016.69 1016.67
1005.20 1003.12 1002.09 1000.12 999.00 999.51 1000.34 1000.82 998.42 999.68 1000.85 1001.45 1001.75 1002.60 1004.87 1005.73 1005.91 1006.46 1007.47 1007.86 1008.92 1009.45 1010.83 1013.01 1013.46 1013.88 1014.26 1014.57 1014.91 1015.17 1015.39 1015.58 1015.81 1015.93 1016.08 1016.23 1016.35 1016.51 1016.57 1016.66 1016.71 1016.73 1016.75 1016.85 1016.90 1016.90 1016.89 1016.83 1016.75
1004.37 1002.65 1000.44 998.95 997.97 998.66 998.63 998.37 998.23 998.26 1000.39 1001.07 1002.05 1002.63 1004.96 1006.34 1006.38 1007.27 1007.55 1008.09 1008.42 1009.24 1011.19 1012.74 1013.57 1014.01 1014.35 1014.65 1015.00 1015.29 1015.46 1015.68 1015.83 1016.00 1016.13 1016.31 1016.44 1016.57 1016.65 1016.71 1016.78 1016.89 1016.85 1016.90 1016.98 1016.97 1016.96 1016.83 1016.82
1003.42 1001.67 999.99 998.34 997.62 998.12 998.87 999.03 998.80 999.28 1000.35 1001.61 1001.81 1002.76 1004.96 1006.36 1006.69 1007.16 1007.68 1007.97 1008.37 1009.44 1011.23 1012.79 1013.77 1014.09 1014.39 1014.68 1015.08 1015.37 1015.53 1015.73 1015.89 1016.06 1016.28 1016.48 1016.60 1016.68 1016.75 1016.88 1016.86 1016.91 1016.92 1016.89 1016.94 1016.96 1016.90 1016.80 1016.73
1003.17 1001.13 999.90 998.27 997.70 998.21 998.72 999.50 999.12 999.56 1000.28 1001.26 1002.06 1002.35 1004.96 1005.88 1006.65 1007.05 1007.50 1007.81 1008.39 1009.45 1010.74 1012.23 1013.15 1014.02 1014.59 1014.80 1015.10 1015.40 1015.61 1015.81 1015.91 1016.14 1016.33 1016.48 1016.64 1016.69 1016.73 1016.87 1016.92 1016.86 1016.91 1016.87 1016.83 1016.80 1016.77 1016.65 1016.50
1002.95 1001.70 999.99 999.02 998.12 998.46 999.22 999.76 999.49 999.37 1000.38 1002.25 1002.13 1002.10 1004.07 1005.54 1006.75 1007.06 1007.20 1007.63 1008.30 1009.15 1010.43 1011.41 1012.38 1013.29 1013.99 1014.55 1015.18 1015.47 1015.64 1015.86 1016.01 1016.18 1016.38 1016.48 1016.57 1016.60 1016.73 1016.69 1016.71 1016.71 1016.73 1016.72 1016.67 1016.60 1016.56 1016.41 1016.11
1003.45 1002.21 1000.03 999.01 998.67 998.66 999.48 999.67 999.94 1000.05 1000.48 1001.58 1002.47 1002.85 1003.70 1005.77 1006.59 1006.71 1006.84 1007.31 1007.93 1008.62 1009.63 1010.43 1011.29 1012.17 1012.53 1013.35 1014.75 1015.39 1015.65 1015.80 1015.99 1016.14 1016.29 1016.41 1015.66 1015.87 1016.01 1015.83 1016.26 1016.49 1016.54 1016.54 1016.44 1016.39 1016.22 1015.88 1015.36
1003.10 1001.87 999.85 998.79 999.19 999.57 999.77 999.88 999.61 1000.77 1000.65 1001.26 1002.50 1003.83 1004.73 1005.83 1006.20 1006.23 1006.53 1006.86 1007.45 1008.17 1008.80 1009.60 1010.25 1011.11 1011.42 1012.51 1014.15 1014.51 1014.80 1015.00 1015.17 1015.17 1015.59 1015.52 1014.60 1014.39 1014.55 1015.23 1015.88 1016.13 1016.19 1016.15 1015.98 1015.85 1015.59 1015.28 1014.13
1002.49 1001.55 999.84 999.77 1000.58 1000.87 1000.40 999.89 999.17 1000.05 999.89 1000.29 1001.31 1003.35 1004.59 1005.48 1005.79 1005.81 1006.07 1006.38 1006.86 1007.73 1008.35 1008.96 1009.94 1010.75 1010.75 1011.54 1013.11 1013.19 1013.57 1013.85 1014.27 1014.43 1014.63 1014.69 1013.98 1014.47 1014.50 1014.43 1014.69 1015.16 1015.40 1014.94 1014.77 1014.84 1014.66 1013.53 1013.01
1002.13 1001.72 1000.67 1000.31 1000.75 1001.28 1000.48 1000.21 999.79 999.93 999.57 999.00 1000.30 1002.42 1004.03 1004.90 1005.11 1005.17 1005.52 1005.94 1006.41 1007.29 1008.15 1008.89 1009.96 1010.87 1010.79 1011.07 1012.01 1012.15 1012.33 1012.87 1013.34 1013.81 1014.40 1014.31 1014.57 1014.16 1014.15 1013.56 1013.43 1013.65 1013.90 1013.42 1013.74 1013.24 1012.94 1013.36 1013.37
1001.94 1001.49 1001.13 1000.95 1001.20 1001.20 1000.96 1000.60 1000.08 999.73 999.69 999.99 1000.89 1002.32 1003.49 1004.15 1004.57 1004.77 1005.23 1005.77 1006.33 1007.10 1008.04 1008.79 1009.87 1010.93 1011.21 1011.39 1011.62 1011.73 1012.09 1012.48 1012.64 1013.21 1013.86 1013.89 1013.98 1013.97 1013.89 1013.87 1013.85 1013.60 1013.33 1013.39 1013.37 1013.11 1013.06 1013.20 1012.87
1001.37 1001.73 1001.38 1000.66 1001.11 1001.01 1000.91 1000.29 1000.25 1000.13 1000.02 1000.38 1000.89 1001.57 1002.89 1003.42 1004.00 1004.51 1005.05 1005.61 1006.39 1007.03 1007.81 1008.59 1009.60 1010.79 1011.25 1011.64 1011.63 1011.91 1012.17 1012.25 1012.65 1012.95 1013.27 1013.96 1013.81 1013.87 1013.84 1014.01 1014.04 1013.86 1013.68 1013.45 1013.11 1012.99 1013.26 1013.19 1012.81
1001.95 1001.61 1001.35 1000.82 1000.89 1000.77 1000.86 1000.38 999.90 999.84 999.58 1000.27 1000.87 1001.27 1002.07 1002.90 1003.45 1004.01 1004.67 1005.48 1006.38 1007.09 1007.63 1008.45 1009.27 1010.33 1011.09 1011.55 1011.87 1011.84 1011.85 1012.07 1012.50 1012.66 1013.26 1013.69 1014.07 1014.03 1014.22 1013.88 1013.76 1013.46 1013.36 1013.50 1013.45 1013.13 1012.81 1013.14 1013.24
1002.39 1001.83 1000.94 1000.39 1000.79 1000.63 1000.67 999.90 999.79 999.62 999.51 1000.02 1000.27 1000.64 1001.39 1002.19 1002.74 1003.45 1004.21 1005.20 1006.21 1006.88 1007.58 1008.37 1008.82 1009.61 1010.81 1011.12 1011.60 1011.55 1011.41 1011.82 1011.91 1012.22 1012.64 1013.44 1013.71 1013.96 1014.07 1013.92 1013.63 1013.27 1013.27 1013.35 1013.18 1013.18 1013.45 1013.04 1013.19
1001.48 1000.79 1000.14 999.67 999.33 999.82 999.91 999.89 999.39 998.89 998.93 999.64 999.81 1000.09 1000.57 1001.23 1002.29 1002.83 1003.61 1004.67 1005.61 1006.58 1007.31 1008.05 1008.56 1008.87 1010.07 1010.78 1011.05 1011.22 1011.16 1011.67 1011.57 1011.86 1012.16 1012.90 1013.39 1013.49 1013.95 1013.58 1013.20 1013.35 1013.50 1013.32 1013.29 1013.33 1013.49 1013.31 1013.43
1000.03 999.91 999.79 999.10 999.23 999.34 999.53 999.49 999.56 998.98 998.65 999.37 999.84 999.85 999.84 1000.22 1000.95 1002.26 1002.98 1003.77 1005.06 1006.05 1006.83 1007.66 1008.17 1008.64 1009.47 1010.27 1010.67 1010.74 1010.76 1011.25 1011.21 1011.50 1011.77 1012.28 1012.92 1013.18 1013.42 1013.29 1013.34 1013.83 1013.65 1013.49 1013.78 1014.12 1013.93 1014.05 1013.81
1001.06 1000.74 1000.22 999.75 999.77 1000.15 1000.13 999.68 999.33 999.03 998.72 998.71 999.44 999.54 999.54 999.64 999.88 1000.68 1002.09 1003.21 1004.12 1005.35 1006.34 1006.99 1007.64 1008.21 1008.85 1009.38 1009.72 1009.81 1010.05 1010.65 1010.94 1011.17 1011.50 1011.99 1012.48 1012.35 1012.82 1013.33 1013.75 1013.90 1014.04 1014.21 1014.45 1014.41 1014.24 1013.77 1013.69
1002.05 1001.45 1000.86 1000.54 1000.45 1000.68 1000.68 1000.17 999.79 999.20 998.80 998.59 998.70 998.98 999.05 999.12 999.47 999.80 1000.50 1002.01 1003.37 1004.39 1005.34 1006.33 1006.87 1007.55 1008.07 1008.61 1008.89 1009.02 1009.32 1009.76 1010.40 1010.79 1011.38 1011.93 1012.02 1012.26 1012.81 1013.18 1013.51 1013.92 1014.27 1014.52 1014.89 1014.85 1014.45 1013.68 1013.99
1001.96 1001.53 1001.10 1000.87 1000.61 1001.01 1000.73 1000.07 999.60 999.14 998.81 998.59 998.63 998.73 998.75 998.67 998.68 999.13 999.69 1000.55 1002.09 1003.64 1004.77 1005.83 1006.46 1006.90 1007.52 1007.59 1008.37 1008.81 1008.99 1009.45 1010.09 1010.59 1011.53 1012.18 1012.36 1012.72 1012.89 1013.27 1013.61 1013.99 1014.24 1014.24 1014.95 1015.01 1014.89 1014.25 1014.12
1001.59 1001.24 1001.27 1001.25 1001.28 1000.30 999.68 998.64 997.99 997.83 997.58 997.98 998.27 998.44 998.38 998.70 998.79 998.72 998.98 999.37 1000.45 1002.05 1003.86 1005.13 1005.95 1006.39 1007.03 1007.42 1007.39 1007.88 1008.14 1008.66 1009.61 1010.24 1011.06 1012.28 1012.53 1012.59 1012.88 1013.20 1013.67 1014.11 1013.99 1014.72 1014.94 1015.28 1015.27 1015.19 1014.41
1002.19 1001.89 1002.20 1001.79 1001.22 1000.70 999.95 999.06 998.00 997.85 997.43 997.46 997.74 998.21 998.34 998.23 998.01 998.11 998.50 998.86 999.27 1001.03 1002.63 1003.97 1004.99 1005.83 1006.28 1006.83 1006.87 1007.32 1007.95 1008.33 1009.08 1009.55 1010.92 1011.71 1012.25 1012.34 1012.83 1013.23 1013.77 1014.29 1014.26 1014.91 1015.04 1015.38 1015.59 1015.13 1015.27
1003.06 1002.71 1002.41 1001.89 1001.13 1000.01 999.51 998.98 997.70 997.25 997.13 997.13 998.03 998.93 999.22 999.20 998.45 997.99 998.07 998.59 998.59 999.24 1001.24 1002.97 1004.21 1005.00 1005.74 1006.19 1006.78 1006.55 1007.17 1007.50 1007.95 1008.94 1010.52 1011.32 1012.01 1012.32 1012.69 1013.24 1013.83 1014.37 1014.76 1015.09 1015.13 1015.53 1015.75 1016.06 1015.83
1002.77 1002.73 1001.94 1000.81 999.82 998.71 998.27 997.77 997.07 997.27 998.05 999.23 1000.43 1001.71 1002.42 1002.23 1001.64 1000.87 1000.20 999.63 999.31 999.35 1000.70 1002.25 1003.65 1004.69 1005.31 1005.65 1006.07 1006.06 1006.50 1007.23 1007.56 1008.70 1009.77 1010.66 1011.55 1012.31 1012.57 1013.15 1014.03 1014.47 1014.97 1015.25 1015.47 1015.79 1015.98 1016.32 1016.00
1004.59 1004.33 1003.63 1002.25 1001.29 999.74 999.00 998.16 997.56 998.51 1000.00 1001.51 1003.00 1004.11 1004.61 1004.51 1004.11 1003.53 1002.64 1001.93 1001.51 1000.45 1001.45 1002.24 1003.03 1004.28 1005.05 1005.50 1005.93 1006.29 1006.72 1006.71 1007.53 1008.53 1009.13 1010.25 1011.12 1011.98 1013.00 1013.37 1013.91 1014.59 1015.18 1015.48 1015.69 1016.03 1016.03 1016.46 1016.28
1005.87 1005.48 1005.95 1004.95 1004.01 1002.53 1001.22 1000.01 999.41 1001.08 1002.74 1004.22 1005.18 1005.74 1006.02 1006.30 1005.95 1005.21 1004.49 1004.37 1003.50 1002.93 1001.81 1002.85 1003.32 1003.97 1004.67 1005.21 1005.63 1006.04 1006.68 1006.88 1007.48 1008.46 1009.42 1010.18 1010.82 1011.93 1012.81 1013.51 1014.26 1014.87 1015.27 1015.76 1015.83 1016.00 1016.74 1016.42 1016.52
1008.15 1008.04 1006.81 1005.91 1004.73 1003.35 1001.97 1001.09 1001.89 1003.75 1005.33 1006.66 1007.40 1007.74 1007.79 1007.63 1007.24 1006.87 1006.53 1006.31 1006.11 1005.97 1005.69 1004.79 1005.14 1005.36 1005.73 1005.45 1005.65 1006.05 1006.71 1007.03 1007.75 1008.79 1009.70 1010.35 1010.70 1011.84 1012.50 1013.19 1013.82 1014.85 1015.45 1015.79 1015.69 1016.29 1016.76 1016.79 1016.34
1009.28 1008.63 1009.61 1009.47 1008.20 1005.94 1004.48 1003.31 1003.82 1005.61 1007.16 1008.17 1008.86 1009.26 1009.40 1009.51 1009.09 1008.77 1008.38 1007.54 1007.39 1007.40 1006.98 1006.58 1006.11 1006.06 1006.13 1006.15 1006.17 1006.45 1007.00 1007.37 1008.13 1009.05 1009.57 1010.19 1011.22 1011.95 1012.66 1013.33 1013.70 1014.59 1015.34 1015.56 1015.69 1016.16 1016.37 1016.54 1016.49
1012.02 1012.48 1012.61 1011.87 1010.16 1009.47 1008.59 1005.96 1005.38 1006.18 1007.01 1009.11 1010.04 1010.52 1010.65 1010.72 1010.35 1010.10 1009.71 1009.00 1008.92 1008.77 1008.06 1007.45 1006.35 1006.62 1006.35 1006.36 1006.46 1006.62 1006.93 1007.53 1008.32 1008.93 1009.51 1010.34 1011.27 1011.95 1012.52 1013.17 1013.72 1014.59 1015.14 1015.68 1015.93 1015.38 1015.91 1016.29 1016.29
Wind_Speed
11 15 10 8 10 6 4 16 16 5 9 9 10 7 15 15 16 6 13 10 22 20 18 16 14 14 14 14 13 13 12 11 11 12 12 13 12 12 11 11 10 11 10 10 10 9 8 8 8
14 12 9 10 6 7 9 15 16 15 10 5 10 2 8 15 13 14 12 15 21 19 16 16 14 13 14 12 13 12 12 11 12 12 12 12 12 11 10 10 9 9 8 8 7 7 6 6 4
14 12 12 12 6 8 11 15 18 13 9 7 8 3 7 8 5 13 18 18 21 17 17 17 15 13 14 14 13 12 12 12 12 12 12 11 11 10 9 8 8 7 6 6 5 4 4 3 3
7 11 9 12 2 11 9 27 18 14 9 3 7 13 10 8 9 10 17 19 18 18 19 18 16 14 14 14 13 13 13 12 12 12 11 10 10 9 8 7 6 6 5 4 4 3 2 3 4
10 10 12 13 12 6 5 8 6 16 7 7 4 15 9 5 11 17 18 17 17 18 19 17 16 16 15 15 14 14 13 12 12 11 11 10 10 8 7 6 6 4 4 3 2 1 2 4 5
11 10 13 14 13 8 2 2 3 10 9 7 3 10 12 12 16 17 17 17 16 18 17 17 15 15 14 15 14 14 12 12 12 11 9 9 8 7 6 5 5 4 3 2 2 3 4 6 7
15 13 16 19 4 1 4 2 7 6 6 11 0 9 12 15 15 17 16 15 16 18 18 16 15 14 14 14 13 13 12 11 11 10 9 8 7 7 6 5 5 4 4 4 5 5 6 7 8
13 13 21 7 12 2 8 4 6 2 16 6 4 7 13 17 16 15 16 16 16 17 18 17 16 16 14 13 13 13 12 11 10 9 9 8 7 7 8 7 10 8 7 7 7 8 9 10 11
13 13 16 15 10 2 6 10 3 2 7 5 4 7 16 19 17 16 16 16 15 14 17 17 17 16 15 15 13 12 11 11 10 9 9 9 9 10 12 8 11 9 8 9 10 10 12 13 16
15 14 22 4 6 9 4 10 17 7 7 8 10 8 18 19 17 17 16 15 17 16 17 16 16 16 15 12 14 12 11 10 10 10 11 9 10 6 4 6 11 10 11 12 15 15 16 15 12
17 18 22 6 2 6 11 9 9 13 15 11 17 15 17 19 17 17 17 16 17 17 14 16 12 12 13 12 10 8 8 8 8 10 9 9 5 6 6 6 8 8 14 9 13 14 11 15 6
20 18 23 6 5 9 11 7 5 11 12 6 8 20 18 18 18 17 17 16 16 16 15 14 14 12 10 8 9 9 8 8 7 8 9 6 5 4 6 5 5 4 6 7 4 7 7 7 10
21 16 17 13 8 12 9 11 11 10 13 6 6 18 17 17 17 15 14 14 13 15 15 14 15 12 10 8 8 7 7 7 8 7 9 8 7 5 5 5 5 6 6 5 6 7 6 7 10
17 13 23 14 15 15 14 14 8 15 12 5 7 17 17 18 18 16 16 15 14 14 16 15 16 14 13 10 8 7 7 7 6 7 7 9 6 4 6 5 6 5 6 6 7 6 8 8 9
11 15 16 19 16 16 13 16 15 16 6 11 11 13 17 17 18 18 18 16 16 14 15 15 15 16 14 13 10 8 8 8 8 7 8 8 8 5 6 6 5 5 5 6 7 9 7 4 5
14 16 17 20 24 22 18 15 20 16 12 13 15 15 16 19 19 19 18 17 18 16 15 16 15 18 15 13 11 9 8 8 8 7 7 9 9 7 7 6 6 6 4 7 7 5 5 8 6
13 14 19 17 20 21 20 18 20 17 18 14 14 14 14 16 18 18 20 19 18 17 17 16 15 17 17 13 11 11 10 8 8 7 7 10 9 9 8 7 7 3 6 8 6 7 3 7 5
11 17 13 10 13 10 15 18 19 20 14 12 16 16 15 18 19 19 20 20 20 18 16 16 14 13 16 12 10 10 9 10 9 8 7 9 8 9 8 8 4 4 7 5 5 6 6 6 5
13 13 13 13 5 1 13 16 20 23 24 15 15 19 18 17 17 20 21 19 18 18 17 18 17 16 13 13 13 11 11 10 10 8 9 7 9 8 7 4 3 4 4 3 4 5 5 6 2
12 13 15 13 12 8 13 18 18 19 19 20 18 19 20 19 19 18 21 21 18 18 19 17 18 17 15 12 10 10 10 11 9 8 8 9 7 7 4 4 4 4 2 1 2 4 6 7 5
13 13 13 14 11 12 15 18 19 19 20 21 22 22 21 21 20 19 20 22 20 18 18 18 17 17 17 15 10 8 9 7 10 8 6 5 6 6 6 6 5 4 5 4 1 3 2 6 3
13 10 8 10 13 13 14 11 13 15 20 22 22 22 18 19 21 19 19 20 23 21 18 18 17 17 17 16 14 14 12 12 10 9 10 9 10 10 8 7 6 4 2 4 4 4 5 4 4
12 11 9 13 13 15 17 12 14 15 15 16 12 14 19 22 20 20 19 20 20 21 20 17 17 17 16 17 15 14 14 12 11 11 14 10 10 10 10 9 8 6 5 5 5 3 4 1 4
11 12 16 17 16 17 18 18 16 15 17 6 10 9 13 18 18 14 10 12 17 20 19 18 16 17 18 17 19 17 18 15 13 12 11 10 10 9 10 10 8 6 7 6 6 4 5 4 4
12 11 11 14 15 14 17 16 13 7 11 23 22 23 23 24 26 25 25 18 9 10 12 15 17 16 17 18 19 17 17 17 15 15 12 13 9 9 10 10 8 7 6 6 5 4 4 3 5
13 10 12 18 14 17 21 13 7 5 21 20 20 20 22 24 23 24 26 23 23 8 10 15 16 16 18 19 19 16 16 13 12 13 12 10 8 9 11 9 9 10 8 7 6 6 5 4 5
9 9 13 13 16 17 17 22 22 20 23 23 23 24 24 23 22 24 24 28 28 31 8 11 11 14 16 18 14 14 14 13 13 15 12 9 9 10 11 11 10 9 8 8 6 6 4 5 3
7 12 10 9 18 19 15 16 7 17 18 19 22 23 23 23 22 22 21 17 22 17 19 9 5 6 10 12 10 8 10 11 12 13 12 14 11 14 13 13 12 10 9 7 6 7 5 3 4
11 5 8 9 9 13 16 10 13 15 14 18 21 22 22 23 25 24 23 23 19 18 15 12 11 9 8 8 7 9 11 13 13 11 12 11 13 14 14 14 13 11 9 7 4 4 6 4 4
10 11 9 8 10 15 14 16 7 2 16 23 23 23 21 23 22 22 22 22 13 22 15 17 14 6 8 9 9 10 10 12 11 11 13 14 14 14 14 14 13 11 9 8 9 6 5 3 3
Wind_Direction
245 222 239 250 243 296 214 98 118 117 110 44 98 6 49 38 10 68 130 141 117 126 126 139 138 139 140 138 137 138 139 135 132 129 129 128 120 118 116 115 110 107 103 98 93 90 86 79 73
287 280 239 269 233 226 322 137 97 67 91 47 81 275 95 72 50 123 127 131 122 127 142 134 140 142 143 141 139 142 139 138 136 136 133 128 123 119 116 115 109 107 107 102 98 88 79 72 66
265 265 274 240 263 110 275 111 105 109 118 138 129 328 22 66 96 144 118 138 122 137 132 123 142 145 149 148 147 146 143 144 142 137 136 130 124 121 120 116 112 114 110 107 98 86 74 49 21
285 253 240 256 7 150 146 297 105 117 103 117 349 101 102 38 133 112 151 138 144 142 123 136 141 147 152 153 152 149 150 149 142 142 141 135 129 128 127 125 124 123 119 112 98 75 31 9 346
246 260 266 249 270 108 354 18 14 102 89 83 340 91 74 94 109 136 144 144 151 133 123 141 145 151 156 160 155 153 153 150 148 146 146 141 137 138 141 141 137 136 129 120 104 20 323 320 315
277 257 271 258 228 110 25 43 281 108 75 63 143 106 88 131 136 143 151 159 145 127 142 136 149 154 158 160 159 157 155 154 151 152 150 144 147 151 153 154 149 154 160 184 255 289 295 296 299
262 272 254 274 26 354 121 344 232 139 106 87 269 94 115 148 139 150 159 157 145 136 138 150 154 157 161 161 160 161 158 157 154 158 155 158 169 172 171 175 179 184 210 225 249 262 269 276 280
273 278 271 276 275 144 84 230 239 240 88 113 290 81 157 135 150 158 162 163 152 154 144 154 154 161 166 161 166 164 163 163 161 164 168 178 189 188 199 204 201 199 222 239 246 256 262 262 260
256 270 256 229 236 341 109 235 147 29 108 135 88 63 118 140 160 170 167 165 163 168 153 162 165 164 174 158 160 168 170 168 170 176 186 194 209 183 181 167 156 202 226 247 254 254 256 254 250
236 243 253 349 55 341 1 269 156 199 202 157 125 116 125 156 170 175 174 174 171 176 163 163 171 164 173 152 150 180 173 184 191 189 176 221 224 187 289 158 175 207 229 241 242 239 241 249 260
231 252 257 123 240 321 306 230 184 197 190 200 167 152 154 166 179 183 184 182 178 175 172 164 172 163 172 166 164 182 174 185 192 196 191 217 208 202 210 221 201 212 211 236 205 224 230 235 308
238 243 263 309 109 245 280 349 234 238 235 125 145 148 162 176 183 189 188 181 179 172 172 170 168 172 198 173 177 183 188 186 190 194 193 239 221 224 265 246 259 201 196 250 285 268 327 318 272
237 245 251 259 252 253 279 257 252 220 241 106 187 147 171 184 185 189 182 172 176 174 172 182 168 178 196 205 183 196 205 191 191 177 187 223 225 232 236 248 270 289 306 306 280 279 302 300 273
238 231 256 241 242 238 243 254 182 237 223 183 203 166 180 189 184 185 183 174 182 185 172 184 175 174 193 201 199 197 192 179 217 192 202 214 236 222 251 233 250 259 273 282 284 310 334 311 300
275 268 266 257 252 250 249 245 256 247 166 182 192 187 183 194 186 192 187 182 184 186 176 186 186 174 198 193 203 208 189 216 198 210 193 211 205 223 269 254 262 260 252 280 276 260 268 271 336
241 243 247 229 222 233 243 257 228 222 194 223 193 192 196 187 199 196 192 188 182 185 186 189 190 176 188 189 194 204 206 207 203 201 189 204 209 231 206 245 250 264 290 286 280 305 322 319 313
213 244 231 246 216 219 219 233 257 229 210 220 240 201 208 203 202 205 196 191 191 191 186 189 193 185 181 195 197 209 196 214 208 204 199 180 209 216 227 247 256 236 275 274 303 305 327 300 317
238 208 227 262 224 212 265 255 241 258 226 215 238 250 232 205 207 204 208 198 191 191 187 192 191 201 175 183 206 198 200 199 214 207 208 179 209 213 221 243 286 290 264 293 359 337 330 302 321
333 307 305 306 254 332 281 275 250 238 256 215 234 241 243 247 218 201 200 211 194 191 193 191 193 189 182 193 195 199 203 199 208 205 208 203 218 223 212 243 209 248 302 323 328 300 274 296 321
265 260 260 260 263 284 271 265 256 266 261 261 253 244 250 242 238 242 195 191 202 191 195 194 195 189 193 196 199 203 200 195 203 191 184 211 200 177 184 233 171 204 120 270 357 306 316 302 52
247 261 276 283 298 220 267 266 261 259 255 254 249 253 255 256 251 233 239 189 189 200 195 203 201 195 196 201 195 202 201 198 198 180 175 200 175 166 177 187 135 169 253 145 343 357 17 329 319
273 264 292 276 259 259 241 287 268 249 227 231 243 246 254 249 255 263 245 226 185 195 199 200 205 205 197 203 193 197 200 192 193 189 180 169 173 176 169 164 155 191 119 102 120 65 333 347 339
287 327 285 284 276 279 265 260 258 257 256 259 235 244 252 251 240 233 239 251 200 187 195 206 200 204 207 198 219 188 203 191 189 189 141 164 175 163 161 156 151 151 161 108 102 79 28 332 326
275 287 273 266 258 252 250 253 266 264 275 241 216 320 333 350 349 257 253 295 259 194 190 199 199 204 204 199 208 200 195 200 185 173 168 172 173 169 155 151 147 147 119 138 120 107 79 26 21
239 265 272 257 235 242 237 233 251 350 354 50 43 31 22 10 9 356 354 334 268 225 198 209 199 210 210 207 203 209 194 213 172 158 179 175 169 169 157 147 146 143 131 136 121 114 120 89 52
294 298 288 304 299 312 322 302 357 73 73 63 47 30 19 11 5 3 353 342 328 217 239 236 214 214 213 213 210 210 203 198 179 179 177 173 166 160 151 146 153 137 149 144 140 158 148 125 102
1 274 344 293 279 270 272 268 255 65 50 33 27 13 8 3 0 358 355 1 359 344 174 258 246 216 216 214 205 200 205 175 188 178 160 159 158 126 151 147 140 148 149 158 171 119 142 141 139
348 330 306 271 269 267 269 282 54 53 40 25 11 4 360 356 356 355 350 350 347 2 344 332 348 249 260 251 199 181 169 189 167 174 178 165 141 148 151 148 146 150 152 163 188 165 151 122 95
331 346 354 318 291 294 288 284 80 83 55 16 2 354 353 347 347 349 344 349 348 339 323 300 294 232 215 249 167 183 180 180 166 166 183 143 141 145 149 152 150 152 162 145 127 94 143 132 125
49 34 2 334 324 321 301 273 325 286 30 3 350 338 340 333 336 331 326 327 347 342 321 307 295 288 213 211 195 198 172 159 157 166 153 144 152 154 156 156 147 152 154 159 168 165 109 96 66